DW8534 Weather Reports


Display with metric or nautical units.
time (UTC)temp
F
wind
direction
speed
MPH
gust
MPH
rain 1hr
in
rain 24hr
in
rain mn
in
humidity
%
barometer
mb
20260901140004 83 132 2.0 0.0 0.00 0.00 0.00 73 1013.1
20260901134502 81 127 2.0 0.0 0.00 0.00 0.00 74 1013.2
20260901133003 80 113 2.0 0.0 0.00 0.00 0.00 76 1012.9
20260901131608 79 108 2.0 0.0 0.00 0.00 0.00 77 1012.9
20260901130059 78 105 1.0 0.0 0.00 0.00 0.00 78 1012.9
20260901124559 77 105 0.0 0.0 0.00 0.00 0.00 78 1012.7
20260901123058 77 105 2.0 0.0 0.00 0.00 0.00 77 1012.4
20260901121610 77 105 1.0 0.0 0.00 0.00 0.00 78 1012.3
20260901120105 77 105 1.0 0.0 0.00 0.00 0.00 77 1012.1
20260901114601 77 105 0.0 0.0 0.00 0.00 0.00 76 1012.1
20260901113056 77 105 1.0 0.0 0.00 0.00 0.00 76 1011.8
20260901111556 77 105 1.0 0.0 0.00 0.00 0.00 76 1011.8
20260901110052 77 105 1.0 0.0 0.00 0.00 0.00 75 1011.8
20260901104552 77 105 1.0 0.0 0.00 0.00 0.00 76 1011.8
20260901103101 77 105 1.0 0.0 0.00 0.00 0.00 76 1011.8
20260901101552 78 106 3.0 0.0 0.00 0.00 0.00 75 1011.8
20260901100044 80 171 1.0 0.0 0.00 0.00 0.00 73 1011.6
20260901094544 80 171 0.0 0.0 0.00 0.00 0.00 73 1011.7
20260901093109 80 171 0.0 0.0 0.00 0.00 0.00 72 1011.8
20260901091557 80 171 0.0 0.0 0.00 0.00 0.00 71 1011.8
20260901090040 81 171 1.0 0.0 0.00 0.00 0.00 70 1011.8
20260901084539 81 171 1.0 0.0 0.00 0.00 0.00 69 1011.7
20260901083044 82 171 2.0 0.0 0.00 0.00 0.00 68 1011.7
20260901081537 81 167 2.0 0.0 0.00 0.00 0.00 68 1011.5
20260901080042 81 107 1.0 0.0 0.00 0.00 0.00 65 1011.6
20260901074535 81 105 1.0 0.0 0.00 0.00 0.00 63 1011.7
20260901073035 81 105 1.0 0.0 0.00 0.00 0.00 62 1011.5
20260901071534 81 105 1.0 0.0 0.00 0.00 0.00 61 1011.5
20260901070035 81 105 1.0 0.0 0.00 0.00 0.00 61 1011.4
20260901064537 81 105 2.0 0.0 0.00 0.00 0.00 60 1011.3
20260901063027 82 110 2.0 0.0 0.00 0.00 0.00 58 1011.2
20260901061525 83 111 2.0 0.0 0.00 0.00 0.00 57 1011.0
20260901060024 83 111 2.0 0.0 0.00 0.00 0.00 56 1010.8
20260901054523 83 105 2.0 0.0 0.00 0.00 0.00 55 1010.7
20260901053024 84 108 3.0 0.0 0.00 0.00 0.00 55 1010.6
20260901051519 84 107 3.0 0.0 0.00 0.00 0.00 54 1010.4
20260901050017 84 106 1.0 0.0 0.00 0.00 0.00 52 1010.4
20260901044516 85 107 2.0 0.0 0.00 0.00 0.00 49 1010.3
20260901043016 85 107 2.0 0.0 0.00 0.00 0.00 49 1010.2
20260901041515 85 107 1.0 0.0 0.00 0.00 0.00 49 1010.2
20260901040016 86 107 0.0 0.0 0.00 0.00 0.00 47 1010.3
20260901034514 87 107 1.0 0.0 0.00 0.00 0.00 46 1010.3
20260901033028 87 107 0.0 0.0 0.00 0.00 0.00 46 1010.2
20260901031514 87 107 1.0 0.0 0.00 0.00 0.00 45 1010.2
20260901030015 87 107 0.0 0.0 0.00 0.00 0.00 44 1010.2
20260901024514 88 107 1.0 0.0 0.00 0.00 0.00 42 1010.0
20260901023012 89 107 2.0 0.0 0.00 0.00 0.00 41 1009.7
20260901021517 90 107 1.0 0.0 0.00 0.00 0.00 39 1009.7
20260901020011 90 107 2.0 0.0 0.00 0.00 0.00 37 1009.4
20260901014511 91 107 2.0 0.0 0.00 0.00 0.00 36 1009.2
20260901013011 91 107 1.0 0.0 0.00 0.00 0.00 36 1009.2
20260901011510 92 107 2.0 0.0 0.00 0.00 0.00 35 1009.1
20260901010009 92 107 1.0 0.0 0.00 0.00 0.00 36 1009.1
20260901004509 93 107 1.0 0.0 0.00 0.00 0.00 35 1009.1
20260901003012 94 107 2.0 0.0 0.00 0.00 0.00 34 1009.1
20260901001514 95 107 3.0 0.0 0.00 0.00 0.00 33 1009.1
20260901000007 96 124 4.0 0.0 0.00 0.00 0.00 33 1009.0
20260831234522 97 111 3.0 0.0 0.00 0.00 0.00 33 1009.1
20260831233007 97 106 4.0 0.0 0.00 0.00 0.00 32 1009.1
20260831231505 97 102 3.0 0.0 0.00 0.00 0.00 34 1009.0
20260831230005 98 125 5.0 0.0 0.00 0.00 0.00 34 1009.1
20260831224504 98 120 4.0 0.0 0.00 0.00 0.00 34 1009.1
20260831223004 98 119 5.0 0.0 0.00 0.00 0.00 33 1009.3
20260831221509 98 129 4.0 0.0 0.00 0.00 0.00 33 1009.3
20260831220005 97 128 4.0 0.0 0.00 0.00 0.00 34 1009.5
20260831214500 97 162 3.0 0.0 0.00 0.00 0.00 35 1009.6
20260831213107 96 127 5.0 0.0 0.00 0.00 0.00 36 1009.7
20260831213004 97 128 5.0 0.0 0.00 0.00 0.00 35 1009.7
20260831211600 99 131 4.0 0.0 0.00 0.00 0.00 34 1009.7
20260831210059 97 129 5.0 0.0 0.00 0.00 0.00 34 1010.0
20260831204602 99 103 5.0 0.0 0.00 0.00 0.00 34 1010.2
20260831203127 98 189 4.0 0.0 0.00 0.00 0.00 34 1010.4
20260831201556 97 106 5.0 0.0 0.00 0.00 0.00 36 1010.7
20260831200057 97 132 5.0 0.0 0.00 0.00 0.00 36 1010.8
20260831194556 98 113 3.0 0.0 0.00 0.00 0.00 34 1010.9
20260831193056 98 118 5.0 0.0 0.00 0.00 0.00 35 1011.2
20260831191553 98 109 6.0 0.0 0.00 0.00 0.00 36 1011.4
20260831190116 97 119 5.0 0.0 0.00 0.00 0.00 36 1011.6
20260831184551 97 123 6.0 0.0 0.00 0.00 0.00 37 1011.7
20260831183049 96 131 7.0 0.0 0.00 0.00 0.00 40 1011.8
20260831181556 97 146 5.0 0.0 0.00 0.00 0.00 39 1012.0
20260831180047 96 105 5.0 0.0 0.00 0.00 0.00 42 1012.3
20260831174550 95 122 5.0 0.0 0.00 0.00 0.00 42 1012.6
20260831173044 95 111 5.0 0.0 0.00 0.00 0.00 42 1012.8
20260831171543 95 142 3.0 0.0 0.00 0.00 0.00 45 1012.9
20260831170041 94 199 5.0 0.0 0.00 0.00 0.00 46 1013.0
20260831164537 93 136 4.0 0.0 0.00 0.00 0.00 46 1013.1
20260831163035 92 159 4.0 0.0 0.00 0.00 0.00 48 1013.1
20260831161532 91 137 3.0 0.0 0.00 0.00 0.00 48 1013.2
20260831160040 90 140 4.0 0.0 0.00 0.00 0.00 51 1013.3
20260831154526 89 180 4.0 0.0 0.00 0.00 0.00 52 1013.3
20260831153044 88 196 5.0 0.0 0.00 0.00 0.00 57 1013.1
20260831151520 87 205 6.0 0.0 0.00 0.00 0.00 59 1013.0
20260831150016 86 200 6.0 0.0 0.00 0.00 0.00 63 1012.9
20260831144513 85 207 7.0 0.0 0.00 0.00 0.00 66 1012.8
20260831143011 84 242 6.0 0.0 0.00 0.00 0.00 66 1012.8
20260831141518 83 208 5.0 0.0 0.00 0.00 0.00 69 1012.8